Preview of NWS' New Version of Forecast
This preview is not operational and should not be used for support decisions.

Regional Weather Roundup (RWR)

Issued by National Weather Service (NWS)

                            
000
ASUS45 KBOI 180310
RWRID 

IDAHO REGIONAL WEATHER ROUNDUP
NATIONAL WEATHER SERVICE BOISE ID
900 PM MDT TUE SEP 17 2019

NOTE: "FAIR" INDICATES FEW OR NO CLOUDS BELOW 12000 FEET
WITH NO SIGNIFICANT WEATHER AND/OR OBSTRUCTIONS TO VISIBILITY

IDZ012-014-180400-
SOUTHWEST IDAHO

  
CITY           SKY/WX    TMP DP  RH WIND       PRES   REMARKS
BOISE          CLOUDY    63  42  46 SE5       29.93S                  
CALDWELL       CLOUDY    61  47  59 W8        29.94R                  
MOUNTAIN HOME  PTCLDY    60  40  48 SE6       29.94R                  
$$

IDZ016-017-180400-
SOUTHCENTRAL IDAHO

  
CITY           SKY/WX    TMP DP  RH WIND       PRES   REMARKS
BURLEY         CLEAR     55  39  54 E5        30.02S                  
JEROME         CLEAR     54  37  52 E10       30.01S                  
TWIN FALLS     CLEAR     52  39  61 SE9       30.01S                  
$$

IDZ019>023-180400-
SOUTHEAST IDAHO

  
CITY           SKY/WX    TMP DP  RH WIND       PRES   REMARKS
IDAHO FALLS    CLEAR     51  34  52 S9        30.07S                  
POCATELLO      CLEAR     49  34  56 SE5       30.06S                  
REXBURG        PTCLDY    52  33  48 S9        30.07S                  
$$

IDZ006-010-011-018-031-032-180400-
CENTRAL IDAHO MOUNTAINS

  
CITY           SKY/WX    TMP DP  RH WIND       PRES   REMARKS
MCCALL         CLOUDY    50  37  61 CALM      29.99F                  
HAILEY         CLEAR     46  36  66 NW8       30.07S                  
STANLEY          N/A     44  34  67 SE6       30.07S                  
SALMON         CLEAR     49  42  77 E3        29.98R                  
CHALLIS        PTCLDY    56  31  38 W12       30.00R                  
$$

IDZ002-004-006-007-026-180400-
NORTHERN IDAHO

  
CITY           SKY/WX    TMP DP  RH WIND       PRES   REMARKS
LEWISTON       CLOUDY    66  39  37 SE5       29.81S                  
LOWELL           N/A     55  51  86 CALM      29.91R                  
COEUR D'ALENE  CLOUDY    59  43  55 CALM      29.87R                  
MULLAN PASS    MOCLDY    42  36  79 CALM      29.96S                  
$$